Probability
40 39 37 36 38 37 34 32 32 30 30 34 36 35 32 31 31 34 36 34 34 34 32 30 29 30 29 27 25 25 25 25 23 20 20 21 22 20 17 17 14 12 10
40 39 38 38 39 37 35 34 32 30 31 33 35 35 32 30 30 32 31 30 30 31 33 32 30 30 32 31 30 27 25 26 26 24 23 22 21 19 18 16 14 12 11
38 38 38 38 38 37 35 35 33 32 32 34 36 35 32 30 31 31 29 27 27 29 32 32 30 31 33 34 32 29 26 25 27 27 25 24 22 20 20 17 14 13 13
35 36 36 36 36 35 34 34 33 33 33 35 37 35 32 30 29 29 29 26 26 26 28 29 29 29 30 28 28 28 27 26 26 25 24 24 23 21 21 18 15 14 12
36 35 35 35 34 34 34 35 35 34 34 36 37 35 33 29 25 24 25 24 24 25 26 26 26 25 22 19 21 23 25 26 25 22 21 23 22 21 20 17 15 13 11
39 38 36 35 36 36 37 38 37 36 36 37 37 35 33 28 22 19 19 21 23 24 25 24 21 18 16 15 14 14 17 19 21 23 22 21 21 20 18 15 15 14 12
42 41 41 40 39 39 39 40 40 38 39 38 37 35 33 26 18 13 15 19 21 23 24 23 19 15 14 15 13 11 10 10 13 19 21 20 19 18 16 15 16 16 13
44 44 45 45 43 40 38 39 41 40 39 38 37 35 32 24 13 8 10 16 20 21 22 21 19 14 12 12 14 13 10 8 7 10 14 15 14 12 12 14 17 16 14
45 46 47 47 46 42 39 38 39 39 38 37 36 36 32 23 11 5 6 12 18 20 20 19 17 12 8 7 10 12 11 8 5 5 7 7 6 5 6 10 15 16 14
48 47 47 48 46 44 42 41 39 37 35 34 34 35 32 22 10 3 5 11 16 18 20 18 14 8 3 3 6 9 9 6 3 3 4 4 3 2 4 8 14 16 14
50 49 48 47 45 45 45 45 42 38 34 32 31 31 30 24 12 3 3 9 14 18 20 19 12 5 1 1 3 6 5 3 2 3 5 6 6 6 8 12 17 18 16
49 49 48 45 42 41 43 43 40 37 34 31 28 28 27 25 16 5 2 5 11 16 18 15 9 3 0 0 1 2 2 2 2 3 5 7 9 11 14 18 20 19 18
42 44 43 40 36 35 35 33 31 31 31 29 28 26 24 25 21 10 3 2 6 11 11 8 4 1 0 0 0 0 1 2 3 3 4 7 10 14 16 18 18 17 16
33 35 34 32 30 28 25 21 20 21 23 24 25 25 24 23 20 12 6 5 5 6 5 3 2 2 2 2 1 1 2 2 3 3 4 7 11 15 16 15 15 13 12
28 28 27 25 23 20 16 12 11 12 12 14 17 20 19 15 11 7 7 8 6 4 3 3 4 4 5 5 5 5 5 5 4 4 5 7 10 14 15 14 13 12 10
28 25 22 20 18 14 11 8 6 5 4 4 7 9 9 6 3 2 3 4 3 2 2 3 4 5 5 6 8 8 7 7 6 6 6 7 9 12 13 12 12 11 9
28 24 19 18 15 11 9 8 7 5 2 0 1 1 1 1 0 0 0 0 0 0 1 2 4 5 5 5 6 7 8 8 8 8 7 7 8 9 9 9 10 9 8
24 19 16 15 13 10 8 8 9 7 4 1 0 0 0 0 0 0 0 0 1 1 2 2 3 4 5 5 5 6 8 9 8 7 7 7 7 6 6 6 7 7 7
19 15 13 13 11 9 8 8 10 8 5 4 4 2 1 0 0 0 0 1 3 3 3 3 4 4 5 5 5 6 7 7 6 5 6 8 7 5 4 5 6 6 6
18 13 10 10 10 9 8 8 9 9 7 7 9 6 2 0 0 0 1 2 4 4 4 4 5 5 6 5 5 6 5 4 3 3 5 7 7 5 5 6 6 5 4
16 13 10 10 9 9 8 8 9 10 9 9 10 8 3 1 1 1 2 2 3 3 3 3 5 6 6 6 5 5 4 3 3 3 4 5 5 4 5 6 5 4 4
14 14 13 12 11 9 9 9 9 9 9 9 9 7 5 4 4 4 4 3 2 2 2 3 5 5 5 5 5 4 3 3 2 2 3 3 3 3 2 2 2 3 3
13 13 15 15 13 11 9 8 7 8 8 9 10 9 7 6 6 6 6 5 3 3 2 3 4 4 4 5 5 4 3 2 2 1 1 1 2 2 1 0 0 1 2
11 11 14 16 16 13 10 7 6 6 7 8 10 9 8 7 6 7 7 7 5 4 3 2 2 2 3 4 4 3 2 2 2 1 1 1 2 2 1 0 0 1 2
8 8 11 15 16 14 11 8 6 5 6 7 8 8 8 8 8 7 7 6 5 5 4 2 0 0 1 2 2 1 1 1 1 1 0 1 1 1 0 0 0 1 1
5 6 8 13 15 14 11 8 6 6 6 6 7 8 9 9 9 7 5 5 4 4 2 1 0 0 0 1 1 0 0 0 0 0 0 0 0 0 0 0 0 0 0
Wind_Speed
5 4 4 4 3 3 2 2 1 1 1 1 2 2 2 2 2 2 3 3 4 3 3 3 4 4 3 3 2 2 3 2 4 3 2 2 2 2 2 3 4 5 5
5 5 4 3 3 3 3 2 2 1 2 2 2 2 2 2 2 2 3 3 3 3 3 3 4 4 4 4 2 3 3 3 3 4 3 2 3 3 3 4 5 5 4
5 5 4 3 3 3 3 2 2 2 2 2 2 2 2 2 2 3 3 3 3 3 3 3 4 4 4 3 4 3 3 3 3 4 4 3 2 2 3 4 5 3 4
4 4 3 3 3 3 3 2 3 3 3 2 2 2 3 3 3 2 3 3 3 3 3 3 3 4 4 4 4 4 3 3 3 3 4 3 2 2 2 2 3 2 3
3 3 2 2 2 2 2 2 2 3 3 2 3 3 3 3 3 2 3 4 3 3 3 3 3 3 3 3 3 2 3 3 3 3 3 2 2 1 2 2 3 3 3
2 2 2 1 2 2 2 2 2 2 2 2 3 3 4 4 2 2 3 3 3 3 3 3 4 4 4 4 4 4 4 4 3 3 3 3 2 3 2 3 3 2 2
1 1 1 1 1 1 2 2 2 2 2 3 3 3 3 3 3 2 3 3 4 4 4 4 5 3 1 1 2 4 4 5 4 3 3 3 3 2 3 4 3 3 4
1 1 0 1 1 1 2 2 2 2 2 3 3 3 3 3 3 3 4 4 4 4 4 5 4 2 2 1 2 3 3 3 4 4 3 3 3 3 3 4 4 4 3
0 0 0 1 1 1 2 2 2 2 3 3 3 3 3 2 3 3 3 4 3 4 4 4 4 3 2 1 2 3 3 3 2 2 3 3 4 4 3 2 2 2 3
0 1 0 1 1 2 2 2 2 2 3 3 3 3 3 2 4 4 4 3 4 4 3 3 3 2 3 2 2 3 3 3 3 3 3 4 4 4 4 3 3 2 2
1 1 1 1 1 1 1 1 1 2 2 3 2 3 2 2 3 4 4 3 3 4 2 1 1 3 4 3 3 3 3 3 3 4 3 3 3 3 3 3 3 2 2
1 1 1 1 2 1 1 1 1 2 2 2 2 2 1 0 0 1 2 4 4 4 3 2 1 3 4 4 3 3 3 3 3 3 3 2 2 2 2 3 3 3 3
1 1 1 1 1 1 1 1 1 1 2 2 2 2 1 1 0 0 2 4 5 3 2 2 1 3 4 4 5 4 3 2 3 3 3 2 2 2 2 2 2 2 2
2 1 1 0 1 1 1 2 1 1 2 3 3 3 2 1 2 2 1 2 2 2 2 2 2 3 3 3 3 3 3 3 3 3 2 2 2 1 1 1 1 1 1
2 2 2 1 1 1 1 1 1 1 1 1 2 3 3 3 2 2 2 2 2 2 1 1 1 1 2 2 2 2 2 2 3 3 2 2 2 1 1 1 1 1 2
2 2 2 1 1 1 1 0 2 1 2 2 1 1 1 1 2 2 2 2 2 1 0 1 1 1 2 2 2 2 2 2 2 2 2 2 2 2 2 2 1 2 2
2 2 2 2 2 1 1 1 1 0 1 1 0 1 1 2 2 2 2 3 2 1 0 1 1 1 2 2 2 2 2 2 1 1 1 1 1 2 2 2 1 1 1
3 3 2 2 2 2 2 2 2 2 2 2 2 2 2 2 3 2 1 2 1 1 1 1 1 1 2 2 2 2 2 2 1 1 1 1 1 1 1 1 1 1 1
3 3 2 3 3 2 2 3 3 3 2 2 1 1 2 3 2 2 1 1 1 1 1 1 1 2 2 2 2 2 2 2 2 1 1 0 1 1 1 1 1 1 1
3 4 4 4 4 2 2 3 3 3 2 1 1 1 1 1 1 1 2 2 1 1 1 1 1 1 1 1 2 2 2 2 2 1 1 1 1 1 1 1 1 1 1
3 4 5 4 3 2 2 3 3 2 1 2 1 1 2 2 2 1 1 1 1 0 1 1 1 1 1 1 1 2 2 2 2 2 2 1 1 2 1 1 1 1 1
4 3 2 2 2 1 2 3 3 2 1 1 1 1 3 2 1 0 1 1 1 0 1 1 1 1 2 2 2 2 2 2 2 2 2 1 1 1 2 1 1 1 1
4 4 2 2 2 1 2 2 2 1 1 1 1 1 1 1 1 0 1 1 1 1 1 1 1 2 3 3 3 3 3 2 2 2 2 2 2 1 1 2 2 2 1
4 3 3 2 2 2 2 1 1 1 1 0 1 1 1 0 1 1 1 1 1 1 2 2 2 3 4 4 3 3 4 4 3 2 3 2 2 2 2 2 2 2 2
4 3 3 2 2 2 2 1 0 0 0 0 1 1 1 1 1 2 2 2 2 2 2 2 2 3 4 5 5 5 5 5 4 4 2 2 2 2 2 2 2 2 2
3 2 2 2 1 1 1 1 0 0 0 1 1 1 1 1 1 1 2 2 2 3 3 2 3 4 4 4 5 5 4 4 4 4 3 2 2 2 2 2 3 3 3
Wind_Direction
176 179 179 180 193 200 220 238 233 250 252 238 234 234 239 245 250 250 257 252 241 238 241 232 234 240 255 261 251 240 241 239 252 266 259 258 247 235 223 231 228 213 214
174 176 180 182 189 198 215 225 226 234 246 249 245 249 255 255 254 257 264 265 256 250 248 247 250 247 248 258 261 256 249 237 244 262 262 260 251 238 229 238 245 231 224
170 176 176 189 195 204 215 221 224 229 239 252 243 248 259 261 251 250 253 261 260 258 251 245 251 255 256 255 253 258 260 259 241 248 256 246 245 241 244 254 256 247 250
162 173 174 189 205 212 217 224 222 226 231 235 245 248 253 259 254 246 248 257 258 261 259 255 255 253 252 257 255 256 261 267 259 256 258 258 241 236 232 258 269 258 258
151 165 166 184 201 217 225 231 231 230 236 235 242 247 249 247 255 258 253 255 260 265 265 261 260 252 248 252 258 262 262 258 259 258 261 268 262 259 248 259 266 268 263
142 153 158 188 204 219 237 238 238 242 246 238 241 251 255 260 263 269 278 274 272 268 269 266 261 247 234 234 241 244 249 248 252 257 262 261 266 261 255 259 263 272 268
147 156 155 198 217 234 250 253 250 247 244 248 251 254 259 264 260 259 267 271 265 260 259 260 268 262 251 241 236 236 250 256 250 249 260 266 268 269 264 262 256 257 260
180 156 118 234 235 241 252 258 258 258 252 253 254 253 253 264 246 246 253 254 258 261 258 253 250 240 249 288 277 259 254 254 249 246 248 260 273 271 258 254 255 256 262
228 163 101 286 266 260 260 263 267 262 256 251 256 252 252 256 248 247 250 263 259 258 253 249 236 222 197 225 250 263 269 273 265 257 251 245 250 257 266 277 276 267 273
332 337 1 301 281 270 267 263 267 264 269 269 261 260 256 245 238 239 245 266 271 267 245 234 231 195 188 216 231 249 258 267 277 276 260 250 246 245 237 226 240 257 277
341 340 343 303 275 268 302 306 295 288 285 280 275 264 252 247 236 233 233 260 281 285 273 244 212 175 187 211 241 252 257 272 269 259 253 246 237 228 220 209 212 217 245
9 7 12 354 316 12 9 331 335 314 299 290 283 285 277 253 265 225 232 266 293 291 286 288 251 211 213 219 230 258 263 277 268 261 256 251 246 238 224 215 210 213 216
4 3 6 359 348 354 338 337 339 330 317 311 304 295 306 329 59 158 227 271 284 284 299 298 254 229 227 228 240 247 249 253 253 253 255 258 252 240 218 215 212 216 234
331 332 314 324 333 351 330 341 353 359 347 339 335 327 328 360 21 360 315 284 291 286 309 307 244 216 229 248 239 232 239 251 257 254 251 250 255 256 217 191 200 219 243
286 284 279 275 282 298 318 351 346 52 44 331 335 331 334 337 335 314 301 316 312 302 304 261 263 248 238 243 250 254 248 247 250 259 263 265 259 255 254 235 216 217 219
281 279 278 272 256 239 231 222 55 88 110 79 18 318 338 332 324 328 332 336 332 340 42 268 284 284 279 263 254 259 257 253 256 249 250 251 251 251 254 250 237 226 232
278 275 281 283 268 262 263 265 250 147 165 175 212 309 297 313 322 320 343 349 342 62 57 291 283 279 286 297 293 280 273 258 241 246 250 259 263 261 258 256 246 245 244
274 264 265 271 275 269 262 260 262 260 248 235 214 219 241 256 267 280 348 21 358 39 293 301 314 315 308 303 318 332 328 337 338 306 268 260 267 267 264 275 270 256 256
269 272 270 273 264 257 267 264 261 264 263 254 193 165 229 239 243 255 199 238 271 283 279 284 296 310 327 336 347 346 343 349 341 323 318 315 308 304 300 289 281 291 270
256 253 259 264 266 261 269 277 274 266 267 252 207 147 153 225 231 190 195 222 248 257 272 298 329 345 348 346 338 337 337 332 326 329 344 360 333 303 283 282 299 297 280
265 246 234 246 259 283 305 298 291 287 294 309 302 134 163 217 243 235 211 216 238 323 16 2 357 344 343 341 346 332 329 336 351 359 4 1 336 314 292 286 290 298 305
282 280 267 263 245 235 262 275 290 295 312 324 309 168 178 214 230 158 72 25 322 326 25 10 357 6 5 5 8 359 353 354 2 359 342 328 322 324 331 321 312 313 309
275 277 276 273 270 218 231 249 265 285 330 348 6 53 92 318 326 60 78 63 32 31 49 37 13 18 30 30 30 27 15 10 353 348 336 327 324 319 324 333 324 313 313
277 279 279 276 278 260 251 256 256 277 306 0 61 58 64 33 349 16 60 83 77 57 51 39 40 39 34 34 35 37 33 14 355 345 341 338 333 341 352 352 334 327 327
280 288 286 288 289 290 282 271 232 219 247 113 100 87 47 37 29 16 34 60 63 58 50 39 43 42 36 39 40 39 32 21 12 357 333 325 333 342 343 334 329 332 331
296 298 294 296 296 298 301 301 339 78 74 89 82 70 61 42 32 40 39 41 52 49 44 45 43 39 40 50 52 51 42 17 357 347 334 316 309 322 320 310 316 319 320